Find Starlink 3978

NORAD ID: 52635 Int'l Des: 2022-052 Owner: SPXS Country: US Constellation: starlink operational
LEOCIRCULAR

Current View

Loading 3D Globe...

About Starlink 3978

Description loading...

Upcoming Passes

Passes for default location (London). Set your location on the main map for personalized predictions.

Altitude History

Loading altitude history...

Two-Line Element Set

1 52635U 22052AP 26149.69133912 .00006139 00000-0 40379-3 0 9993
2 52635 53.2007 255.4858 0001432 85.3294 274.7861 15.08812280223364
Epoch: May 29, 2026 • Age: 16 hours

Current Status

Altitude 543.5 km
Velocity 7.60 km/s
Sub-Earth Point 44.22°N, 2.87°E
Launch Date May 14, 2022
Age 4 years
Type internet

Technical Details

Classification Payload
Mass 297.00 kg
Dry Mass 275.00 kg
Total Mass 297.00 kg
Length 0.20 m
Diameter 2.80 m
Span 9.00 m
Shape Box + pan
Manufacturer SPXS
Bus Type Starlink
Phase Status In Orbit
Owner/State SPXS/US

Most Searched